This is the latest recevied weather packets stored in our database for station/object KC8QDR-1. If no packets are shown the sender has not sent any weather packets the latest 10 day(s).
| Time | Temp. | Humidity | Pressure | Rain* | Wind** | Luminosity | Snow |
|---|---|---|---|---|---|---|---|
| 1777561725 | 8.33° C | 81% | 1019.5 hPa | 0 mm | 2.24 m/s, 7° | - | - |
| 1777561125 | 7.78° C | 83% | 1019.4 hPa | 0 mm | 1.79 m/s, 359° | - | - |
| 1777559925 | 7.22° C | 83% | 1019.1 hPa | 0 mm | 3.58 m/s, 348° | - | - |
| 1777559324 | 7.22° C | 85% | 1018.8 hPa | 0 mm | 1.79 m/s, 314° | - | - |
| 1777558901 | 7.22° C | 84% | 1018.7 hPa | 0 mm | 1.34 m/s, 1° | - | - |
| 1777558811 | 7.22° C | 84% | 1018.7 hPa | 0 mm | 1.34 m/s, 1° | - | - |
| 1777558724 | 7.22° C | 84% | 1018.7 hPa | 0 mm | 1.34 m/s, 1° | - | - |
| 1777558124 | 7.22° C | 84% | 1018.5 hPa | 0 mm | 2.68 m/s, 320° | - | - |
| 1777557525 | 7.78° C | 83% | 1018.1 hPa | 0 mm | 2.68 m/s, 12° | - | - |
| 1777556924 | 7.78° C | 87% | 1017.9 hPa | 0 mm | 2.68 m/s, 5° | - | - |
| 1777555727 | 6.67° C | 86% | 1017.9 hPa | 0 mm | 1.34 m/s, 279° | - | - |
| 1777555125 | 6.11° C | 87% | 1017.7 hPa | 0 mm | 2.24 m/s, 25° | - | - |
| 1777554526 | 6.67° C | 89% | 1017.7 hPa | 0 mm | 2.68 m/s, 335° | - | - |
| 1777553925 | 6.67° C | 89% | 1017.6 hPa | 0 mm | 3.58 m/s, 323° | - | - |
| 1777553325 | 6.11° C | 93% | 1017.4 hPa | 0 mm | 2.24 m/s, 21° | - | - |
| 1777552726 | 6.11° C | 94% | 1017.4 hPa | 0 mm | 2.24 m/s, 290° | - | - |
| 1777552125 | 6.11° C | 94% | 1017.5 hPa | 0 mm | 0.89 m/s, 324° | - | - |
| 1777551525 | 5.56° C | 95% | 1017.5 hPa | 0 mm | 3.13 m/s, 319° | - | - |
| 1777550925 | 5.56° C | 95% | 1017.5 hPa | 0 mm | 1.79 m/s, 323° | - | - |
| 1777550325 | 5.56° C | 95% | 1017.5 hPa | 0 mm | 2.24 m/s, 341° | - | - |
| 1777549728 | 5.56° C | 94% | 1017.4 hPa | 0 mm | 2.24 m/s, 337° | - | - |
| 1777549125 | 5.56° C | 93% | 1017.2 hPa | 0 mm | 3.13 m/s, 345° | - | - |
| 1777548524 | 5.56° C | 94% | 1017.2 hPa | 0 mm | 2.24 m/s, 335° | - | - |
| 1777547924 | 5.56° C | 95% | 1017 hPa | 0 mm | 0.89 m/s, 321° | - | - |
| 1777547324 | 5.56° C | 95% | 1016.9 hPa | 0 mm | 1.34 m/s, 73° | - | - |
* Rain latest hour (hover to see other rain measurements)
** Current wind speed in m/s (hover to see current wind gust speed)